GFSSGP_prec_cloud_132.txt.gz
Cloud_Cover
0 0 4 5 5 15 77 5 5 5 27 20 0 90 97 4 100 100 100 100 100 48 2 94 100 100 100 100 100 100 67 5 5 5 5 5 5 35 5 4 0 0 0 1 2 0 0 0 0
0 0 0 0 2 81 80 2 5 0 99 5 25 0 10 0 64 100 100 100 100 100 2 0 22 69 66 100 100 100 100 100 88 44 2 4 0 1 5 4 0 0 12 2 0 2 3 0 0
0 0 0 0 0 62 7 0 0 0 57 2 0 0 0 0 42 92 100 100 100 28 0 1 7 9 0 0 0 18 76 14 48 19 0 0 0 0 0 0 0 0 0 0 0 2 1 0 0
0 0 0 0 5 2 0 0 0 82 100 100 2 0 0 0 8 22 0 4 74 7 9 21 19 12 1 0 0 0 0 0 0 0 0 0 0 0 0 0 0 0 0 0 5 0 0 0 0
4 0 1 0 77 3 2 0 0 11 100 100 64 5 0 0 0 0 43 62 9 21 18 97 100 100 100 100 58 2 0 0 0 0 0 0 0 0 0 0 0 0 0 0 0 0 0 0 0
0 0 0 5 100 3 5 3 0 5 100 100 100 100 47 7 1 0 1 100 100 100 100 100 100 100 100 100 100 75 7 2 0 0 0 3 1 0 0 0 0 0 0 0 0 0 0 0 0
0 0 0 3 60 3 3 5 4 0 41 100 100 100 100 98 99 33 0 0 58 99 100 95 48 30 51 51 80 21 13 2 0 0 0 0 0 0 0 0 0 0 0 0 0 0 0 0 0
7 5 3 5 84 96 5 5 5 0 5 99 100 100 100 59 100 100 100 85 7 5 0 5 5 5 5 14 27 18 5 0 0 0 0 0 0 0 0 0 0 0 0 0 0 0 0 0 0
5 0 4 100 100 100 6 0 0 0 0 5 100 100 100 80 6 98 100 100 100 97 66 4 5 5 4 3 20 13 31 12 0 0 0 0 0 0 0 0 0 0 0 0 0 0 0 0 0
5 5 97 100 47 96 36 0 4 0 0 93 36 77 100 100 100 64 74 20 5 39 11 5 5 4 2 0 1 0 0 0 0 0 0 0 1 0 0 0 0 0 0 4 2 3 4 3 1
5 5 76 13 54 17 59 5 0 2 0 3 3 39 100 5 100 100 94 47 4 5 6 11 6 4 0 0 0 0 0 0 0 2 5 4 2 4 2 3 4 5 5 25 9 5 21 5 5
0 5 9 5 5 6 5 5 0 0 0 0 3 0 4 1 94 100 100 40 24 99 15 32 4 1 59 71 9 0 0 0 0 0 0 3 4 2 0 1 14 4 5 5 5 5 5 15 85
0 0 0 5 3 0 1 4 0 0 0 0 0 0 2 0 1 22 6 4 27 9 52 95 100 100 100 100 100 59 34 4 0 0 0 0 0 74 24 1 90 100 47 4 22 27 38 25 48
0 0 0 0 0 2 5 7 5 4 0 0 0 0 0 5 4 0 0 0 69 8 13 100 100 100 100 100 100 100 8 5 5 4 2 0 0 92 44 0 0 4 44 100 100 100 89 44 82
0 0 0 0 0 0 5 6 0 16 0 0 0 4 5 6 24 0 0 0 83 58 80 100 100 100 100 100 100 100 100 99 98 17 97 40 0 99 100 57 91 95 5 10 26 22 25 99 96
0 0 0 0 0 0 0 0 49 30 3 2 1 24 46 11 90 5 0 0 5 100 100 100 100 100 100 100 100 100 100 64 100 100 100 18 62 55 99 16 62 100 31 79 100 46 36 58 91
0 0 1 42 0 0 0 0 0 0 2 4 5 5 90 8 94 25 2 0 39 100 100 100 100 100 100 100 100 100 100 100 100 100 100 87 11 50 19 42 68 48 97 100 100 100 75 59 91
0 0 0 13 5 2 0 0 0 0 0 0 0 2 3 3 3 5 0 0 20 75 100 100 100 100 100 100 100 100 100 100 100 100 100 29 44 20 1 7 48 4 22 5 4 1 33 63 65
0 0 0 0 2 3 0 0 0 0 0 0 0 0 0 0 0 0 0 0 76 100 100 100 100 100 100 100 100 100 100 100 100 60 0 0 0 0 0 8 39 0 0 0 0 12 32 98 5
0 0 0 0 0 5 0 0 5 5 0 0 0 0 0 0 0 0 0 0 0 96 100 100 100 100 100 100 100 100 100 100 76 2 0 5 48 42 36 56 26 4 1 0 14 10 0 39 4
0 0 0 0 0 2 4 1 70 8 38 5 0 0 0 0 0 0 0 0 0 33 100 100 100 100 100 100 100 100 100 94 2 55 42 68 28 87 47 86 5 4 50 5 5 4 0 2 1
5 0 3 0 0 0 7 13 5 50 14 5 1 5 0 0 0 0 0 0 0 40 84 100 100 100 100 100 100 100 35 3 7 6 7 0 60 97 100 88 72 100 100 28 17 80 29 1 2
49 1 4 3 0 0 0 97 0 0 9 5 5 5 5 6 1 5 0 0 0 0 26 0 22 94 100 100 65 0 0 11 14 58 36 72 99 81 100 86 100 100 54 80 13 76 95 90 5
100 72 94 45 5 68 0 4 0 2 0 24 32 7 18 22 49 7 16 5 7 2 0 0 0 13 24 8 0 0 0 34 32 49 46 58 12 66 91 93 100 100 100 65 53 94 75 96 12
75 100 88 100 98 86 0 1 0 0 0 4 87 97 49 97 100 81 95 71 62 92 31 74 2 5 2 5 2 31 27 23 28 12 7 13 12 4 25 100 100 100 100 97 97 96 35 48 18
70 84 83 74 44 15 5 14 0 0 0 3 74 96 100 64 55 61 100 27 7 26 99 100 8 99 99 86 100 54 90 50 39 16 21 23 61 42 5 100 99 100 100 98 32 96 80 78 7
8 100 19 100 99 100 12 9 0 0 0 2 5 74 6 6 5 10 42 5 9 100 100 100 90 100 80 100 100 100 94 41 88 0 2 69 19 5 5 68 100 100 100 100 47 77 100 57 6
97 30 90 79 100 30 81 44 0 0 0 28 0 1 95 100 77 86 5 6 100 100 100 100 100 100 100 100 100 43 19 19 74 60 4 0 1 5 12 93 100 100 100 100 100 100 100 100 75
99 90 97 100 45 100 24 23 0 0 0 0 24 1 92 100 73 13 47 97 100 100 100 100 100 100 100 100 91 31 38 46 13 5 0 0 5 5 5 19 93 100 100 100 100 100 100 100 98
100 100 100 9 53 100 100 100 97 0 5 13 39 98 27 18 26 98 100 100 100 100 100 100 100 100 100 100 54 24 18 20 17 5 3 0 0 5 5 4 54 100 100 100 100 100 100 100 100

GFSSGP_prec_cloud_135.txt.gz
Cloud_Cover
79 5 5 4 9 100 100 100 5 100 44 99 100 85 34 0 61 100 100 100 100 100 100 100 100 100 42 95 100 66 100 78 99 20 6 8 15 0 0 0 0 0 0 0 0 1 5 0 0
1 5 5 0 43 100 99 10 5 0 2 16 78 47 23 1 28 100 100 100 100 100 100 100 100 100 100 100 100 94 100 100 100 100 100 80 22 0 0 0 0 0 0 0 0 0 0 1 0
0 0 0 0 74 100 100 6 5 0 0 3 0 0 0 70 100 100 100 100 100 100 100 100 100 100 4 46 79 5 3 18 48 33 15 0 0 0 0 0 0 0 12 1 0 0 0 0 0
0 0 0 0 1 100 100 5 5 0 0 6 26 5 0 0 100 100 95 100 100 100 100 100 100 70 28 4 0 0 6 1 0 0 0 0 0 0 0 0 0 0 1 0 0 0 0 0 0
0 0 0 0 5 4 60 13 0 0 0 5 61 61 4 0 6 98 100 100 100 100 100 100 100 33 5 5 15 48 87 78 9 2 0 0 0 0 0 0 0 0 0 0 0 0 0 0 0
0 0 0 16 67 0 0 0 0 0 0 5 93 73 4 0 3 4 2 98 100 100 100 100 70 71 99 100 96 66 95 100 87 5 0 0 0 0 0 0 0 0 0 0 0 0 0 0 0
0 0 0 0 10 2 3 2 0 0 0 0 5 92 5 0 0 2 5 0 15 14 78 57 93 100 82 31 100 100 100 49 2 0 0 0 0 0 0 0 0 0 0 0 0 0 0 0 0
0 0 0 0 3 19 19 5 3 0 3 2 0 0 38 3 0 0 0 55 3 0 0 46 77 99 100 99 60 10 5 11 4 0 0 0 0 0 0 0 0 0 0 0 0 0 0 0 0
3 0 0 10 16 96 5 0 0 0 0 0 4 7 5 2 9 84 100 7 92 79 83 30 69 100 99 96 69 31 17 4 0 1 0 1 16 1 0 0 0 0 0 4 5 60 66 29 5
4 7 64 96 5 9 10 0 5 1 0 0 0 5 30 5 3 71 100 97 62 8 8 35 81 91 83 75 98 67 71 48 29 81 74 5 5 4 0 0 0 0 0 0 0 5 4 2 0
0 0 98 32 9 9 20 1 5 3 0 0 0 0 67 79 37 82 9 100 100 15 2 8 0 25 36 1 25 23 37 10 90 100 100 100 42 5 4 0 1 18 0 3 0 0 3 1 5
0 4 2 4 1 2 67 7 1 8 1 0 0 3 0 4 5 100 100 98 17 88 100 100 100 100 100 100 92 100 100 100 100 100 100 100 100 78 14 3 2 3 3 5 1 1 0 5 5
0 0 1 5 1 0 5 3 0 5 9 0 0 4 0 0 0 100 94 100 29 99 100 100 100 100 100 100 100 99 100 100 100 100 100 100 100 100 100 100 99 75 1 0 0 4 9 2 4
0 0 0 0 0 1 4 34 0 1 5 4 0 2 0 0 0 10 2 0 2 32 100 100 100 100 100 100 100 100 100 100 100 100 100 100 100 100 100 100 100 100 56 100 51 0 3 0 0
0 0 0 0 0 0 0 2 0 98 4 0 4 0 1 0 0 0 0 0 0 0 6 37 36 100 100 100 100 100 100 100 100 100 100 100 100 100 100 100 100 100 100 100 100 100 14 9 66
0 0 0 0 0 0 0 0 5 4 0 0 0 0 0 0 4 5 4 0 0 0 0 98 100 100 100 73 93 100 100 100 100 100 100 100 100 100 100 100 100 100 100 100 100 86 59 92 100
0 0 0 0 0 0 0 0 0 0 0 0 0 0 0 0 0 4 5 0 0 0 0 4 8 96 85 100 100 100 100 100 100 100 100 100 100 100 100 100 100 100 100 100 58 9 3 4 46
0 0 0 0 0 0 0 0 0 0 0 0 0 0 0 0 0 4 5 0 0 0 2 8 6 18 78 100 100 100 100 100 100 100 100 100 100 100 100 100 100 100 100 100 21 73 6 0 0
0 0 0 0 0 0 0 0 0 0 0 0 0 0 0 0 0 4 0 0 0 0 0 0 5 70 88 100 100 100 100 100 100 100 100 100 100 100 100 100 100 100 100 85 93 29 0 0 0
0 0 0 0 0 0 0 0 0 0 0 0 0 0 0 0 0 0 0 12 0 0 2 0 4 48 100 100 100 100 100 100 100 100 100 100 100 100 100 100 100 100 100 43 59 0 0 3 2
0 0 0 0 0 3 0 0 0 0 0 0 0 0 0 0 0 0 0 47 0 0 0 0 0 24 100 100 100 100 100 100 100 100 100 100 100 100 100 100 100 100 97 5 0 0 0 12 0
0 0 2 0 0 0 0 0 0 0 0 0 0 0 0 0 0 0 0 42 0 0 0 0 0 2 100 100 100 100 100 100 100 100 100 100 100 100 100 100 100 100 35 5 13 2 0 4 0
32 0 0 0 5 4 0 0 0 0 1 0 0 0 0 0 0 1 0 0 0 0 0 0 0 0 42 100 100 100 100 100 100 100 100 100 100 100 100 100 100 44 5 5 6 17 5 5 5
34 48 88 35 52 85 0 0 0 0 3 0 5 5 10 28 5 7 18 5 1 0 0 0 0 1 58 78 100 100 100 100 100 100 100 100 100 100 97 59 49 2 5 19 52 90 73 19 10
93 99 100 100 89 66 0 0 0 0 0 0 0 32 100 100 100 90 99 6 5 3 0 0 0 3 14 100 100 100 100 100 100 100 100 100 100 55 12 25 46 16 4 5 46 52 60 67 10
96 57 35 100 4 11 0 3 0 0 0 0 0 0 3 79 100 100 100 21 5 5 5 4 36 5 74 100 100 100 100 100 100 100 100 56 38 28 0 0 2 5 18 99 96 59 78 100 30
85 5 17 100 100 70 1 1 0 0 0 0 0 0 0 0 5 59 99 7 18 16 12 100 95 64 43 99 100 100 100 100 99 20 15 27 3 0 0 0 0 5 17 60 37 51 97 73 100
10 34 51 82 94 100 15 2 0 0 0 0 0 0 0 0 4 5 5 26 94 91 98 100 82 68 58 93 79 100 100 100 99 24 10 0 0 0 4 0 0 5 33 96 56 14 79 100 100
97 96 91 87 47 100 60 3 0 0 0 0 0 0 0 0 6 36 95 100 100 100 100 100 100 17 94 100 100 100 100 99 50 5 3 0 2 5 5 0 0 0 2 3 2 0 5 74 94
64 93 91 100 98 98 77 12 98 22 0 0 0 0 3 3 66 100 100 100 100 100 100 100 55 100 100 100 100 100 100 100 98 5 5 7 7 20 5 0 3 0 0 0 0 1 4 0 6

GFSSGP_prec_cloud_138.txt.gz
Cloud_Cover
5 46 22 73 100 100 14 33 5 16 2 49 17 96 94 12 85 20 100 100 98 99 99 100 100 100 100 100 99 97 100 100 100 100 100 100 100 100 8 4 0 0 2 0 0 2 4 5 26
0 3 44 95 100 100 100 8 100 75 6 99 100 50 84 86 100 100 99 100 30 66 81 100 100 100 100 100 100 98 100 100 70 98 100 100 72 4 2 0 0 0 0 0 0 0 0 4 4
0 14 5 35 100 100 98 26 7 5 6 45 4 2 7 95 100 100 36 100 100 70 90 100 100 100 100 100 100 100 100 47 54 0 0 0 0 0 0 0 0 0 1 0 0 0 0 0 0
0 0 4 5 100 100 100 5 5 0 0 3 0 0 0 28 100 100 100 57 100 100 100 100 100 100 100 100 100 100 26 14 3 2 0 0 0 0 0 0 0 0 16 23 0 0 0 0 0
0 0 0 4 100 100 100 5 5 0 0 8 1 0 0 0 98 100 100 100 100 100 100 100 100 100 100 100 100 100 15 4 5 4 0 0 0 0 0 0 0 0 2 0 0 0 0 0 0
0 0 0 2 54 100 79 72 5 4 0 0 0 0 0 0 0 9 5 52 100 100 100 100 100 100 100 100 100 78 69 34 4 1 2 0 4 0 0 0 0 0 0 4 0 0 0 0 0
0 0 0 3 16 3 96 100 15 24 0 0 0 0 0 0 0 1 2 1 1 56 88 100 100 100 100 100 99 100 100 22 5 4 5 2 9 4 2 7 28 5 5 5 5 30 28 2 2
0 0 0 0 79 96 99 30 8 0 0 0 1 0 0 0 0 5 3 3 1 0 35 23 100 100 82 43 27 10 14 5 5 5 0 0 2 17 92 100 100 100 100 100 100 100 94 25 97
0 0 0 3 70 100 21 0 2 1 0 0 5 0 0 0 0 5 5 97 3 4 57 66 100 70 100 94 46 22 9 2 16 5 1 46 100 100 100 100 100 100 100 100 67 97 100 100 88
5 3 12 93 98 71 26 0 2 0 0 0 0 2 0 0 0 2 78 88 0 29 81 46 78 59 100 100 100 81 90 100 74 35 19 100 100 100 100 100 100 100 100 100 67 72 100 100 100
0 1 100 100 100 95 39 0 91 1 0 0 0 4 5 4 11 0 90 100 55 4 5 92 81 100 65 80 100 100 100 100 53 69 100 100 93 100 100 99 30 100 100 100 67 100 100 97 90
0 0 3 8 45 95 100 88 5 1 39 3 0 0 0 0 8 2 5 100 76 80 0 0 31 100 100 100 100 100 100 86 80 98 53 100 100 100 100 100 100 100 100 100 100 100 100 98 100
0 2 0 0 0 4 39 62 22 5 51 43 5 0 0 0 2 5 5 57 90 12 58 2 86 100 100 100 100 100 100 100 99 100 100 100 100 100 100 100 100 100 100 100 100 95 100 99 88
0 0 1 1 3 4 3 5 1 4 20 5 5 0 0 4 0 0 38 90 6 5 10 4 38 100 100 100 100 100 100 100 100 100 100 100 100 100 100 100 100 100 100 100 100 100 81 100 100
0 0 0 0 5 5 5 5 0 100 2 0 0 0 5 68 63 50 0 2 45 64 60 43 4 12 99 100 100 100 100 100 100 100 100 100 100 100 100 100 70 100 100 100 80 100 100 92 100
0 0 0 0 0 1 4 4 92 100 0 0 0 0 4 99 100 100 99 1 0 20 100 100 100 12 95 100 100 100 100 100 100 100 100 100 100 100 100 100 100 100 100 100 100 100 100 100 100
0 0 0 0 0 0 0 0 0 0 0 0 0 0 1 29 58 69 78 19 0 0 2 75 100 100 100 100 100 100 94 100 100 94 96 100 100 100 100 100 100 100 100 100 94 100 100 100 68
0 0 0 0 0 0 0 0 0 0 0 0 0 0 0 4 6 8 12 5 0 0 0 0 7 99 100 100 100 100 93 100 100 100 100 100 100 100 100 100 100 100 100 100 100 93 84 99 63
0 0 0 0 0 0 0 0 0 0 0 0 0 0 0 0 0 0 32 0 0 0 0 0 0 2 65 39 31 45 69 100 100 100 100 100 100 100 99 100 100 100 70 41 100 58 22 5 6
15 0 0 0 0 0 0 0 0 0 0 0 0 0 0 0 0 0 0 7 0 0 0 0 0 2 2 1 36 6 100 100 100 100 100 100 100 100 100 100 100 100 99 83 100 8 39 94 24
95 40 0 0 0 0 0 0 0 0 0 0 0 0 0 0 0 22 0 0 0 0 0 0 0 0 0 0 17 62 96 100 100 100 100 100 100 100 100 100 100 100 100 100 11 73 71 89 45
5 0 0 0 0 0 0 0 0 0 0 0 0 0 0 0 0 0 0 0 0 0 0 0 0 0 0 0 0 56 100 100 100 100 100 100 100 100 100 100 100 100 100 88 100 87 89 9 5
5 5 4 0 0 0 0 1 0 0 0 0 0 0 0 0 0 0 0 0 0 0 0 0 0 0 0 0 1 2 6 94 100 100 100 100 100 100 100 100 100 100 100 48 100 100 7 5 70
1 80 7 8 19 46 0 0 0 0 0 0 0 0 0 0 0 0 0 0 0 0 0 0 0 0 0 0 0 5 73 98 99 80 90 100 95 100 100 100 89 27 19 100 100 13 32 63 37
96 14 30 62 24 66 0 46 0 0 0 0 0 0 5 94 46 4 3 5 5 5 5 1 0 0 11 0 0 4 40 82 100 100 100 100 100 100 100 70 22 100 70 100 84 14 81 86 95
39 82 52 89 14 0 0 100 2 0 0 0 0 0 0 5 10 5 5 5 5 5 5 5 2 0 8 13 52 72 100 100 97 100 90 50 60 99 100 100 78 54 97 73 6 8 52 20 5
95 5 11 97 100 100 12 0 0 0 0 0 0 0 0 0 0 4 5 5 5 6 26 63 64 7 8 63 100 100 64 90 100 80 81 83 71 89 78 25 21 17 6 29 5 5 8 14 30
100 43 5 68 99 98 5 26 2 0 0 0 0 0 0 0 0 0 5 5 57 58 98 100 100 84 98 99 83 82 79 61 84 90 72 22 5 78 35 3 3 2 2 5 4 5 5 5 3
100 91 6 65 55 93 22 3 5 0 0 0 0 0 0 0 0 0 0 35 5 6 75 99 100 100 100 100 100 100 93 93 100 100 100 5 5 5 3 4 5 15 23 51 5 5 1 0 0
100 100 95 100 7 18 9 1 5 0 0 0 0 0 0 0 0 2 51 100 100 100 100 100 100 100 100 100 100 100 100 100 100 100 58 5 6 79 60 5 5 80 100 97 5 35 3 0 0

GFSSGP_prec_cloud_141.txt.gz
Cloud_Cover
5 8 58 100 100 100 100 100 99 96 63 5 5 3 3 8 38 58 5 4 12 100 70 96 98 100 100 95 100 100 78 5 5 5 10 7 90 100 72 0 0 0 0 0 4 5 5 5 11
5 5 27 100 100 100 100 39 100 41 4 4 0 3 58 79 73 91 36 11 100 100 100 47 90 100 100 100 100 100 89 99 100 100 94 31 4 7 5 3 5 2 4 3 4 3 2 1 0
2 3 3 15 100 100 100 20 34 5 3 0 0 0 53 100 100 100 92 50 100 100 100 50 89 100 91 100 100 100 100 73 47 5 3 0 0 0 2 0 0 0 3 4 8 5 21 50 5
0 0 1 3 100 100 100 5 0 2 0 0 0 5 85 100 100 100 100 93 89 100 100 89 97 100 100 100 100 100 100 45 48 27 3 0 0 0 3 0 0 8 8 15 5 35 44 61 7
0 0 0 64 100 100 100 9 0 0 0 0 0 1 89 100 100 100 100 40 5 90 100 100 100 100 100 100 97 100 100 97 91 5 0 0 0 0 0 1 0 10 11 72 95 32 68 96 84
0 0 0 60 100 100 100 80 0 0 0 0 0 0 6 44 51 61 86 84 27 86 100 100 100 100 82 10 89 100 100 100 99 57 20 1 0 12 37 4 0 0 3 61 100 100 100 100 100
0 0 0 24 100 100 100 100 5 4 0 0 0 0 2 5 5 17 5 8 100 100 100 100 100 100 100 100 100 100 100 100 100 7 5 5 5 92 70 9 1 5 74 100 100 100 100 100 100
0 0 0 14 86 100 100 100 100 4 0 0 0 0 0 5 5 2 1 2 21 58 54 83 53 99 100 100 100 100 100 99 65 5 9 8 66 90 5 5 38 99 100 100 100 100 100 100 98
0 0 0 45 100 100 92 82 99 8 0 0 0 0 0 0 0 72 68 58 47 84 98 67 100 74 60 53 98 99 95 5 5 47 100 100 95 100 100 56 88 100 100 100 100 100 100 100 94
0 0 4 100 100 100 99 0 3 9 3 0 0 0 0 0 0 4 99 100 43 100 90 29 91 39 94 100 100 41 72 57 43 60 100 100 100 100 100 100 100 100 79 100 100 92 100 12 2
0 0 41 72 94 100 98 1 0 1 0 0 0 0 4 5 5 5 81 100 97 75 68 32 22 46 97 100 99 70 73 96 76 100 100 100 100 100 100 100 100 100 97 98 86 100 27 96 69
0 0 5 46 5 24 86 90 0 0 3 5 0 0 0 0 5 5 5 99 100 77 87 24 0 28 84 98 100 91 92 100 99 100 90 53 100 100 100 100 100 100 100 100 100 100 99 81 99
0 1 4 5 40 30 20 13 2 0 8 8 2 0 0 0 4 9 87 66 100 40 88 99 80 66 39 35 57 87 100 93 100 95 66 100 100 100 100 100 100 100 100 100 98 100 100 99 97
0 0 3 1 3 6 50 86 2 4 4 9 26 0 0 0 0 30 94 100 100 40 70 50 20 2 23 7 55 68 98 98 100 100 100 100 100 100 100 100 100 100 100 100 88 100 100 100 100
0 0 0 4 16 5 5 23 5 100 60 5 6 6 0 0 0 22 100 100 100 100 84 4 0 0 0 0 2 5 13 67 100 100 100 100 100 100 100 100 100 100 98 100 100 100 100 100 25
0 0 0 3 3 10 11 9 86 33 5 0 0 5 1 0 0 0 8 100 100 100 100 100 48 5 5 3 1 4 84 82 100 99 92 100 92 100 100 100 100 100 97 97 96 83 38 100 71
0 0 0 0 0 2 0 12 6 5 0 0 0 0 1 0 0 5 5 94 39 96 100 100 100 26 26 38 18 71 100 85 92 98 100 100 100 100 100 100 100 61 96 100 100 100 100 90 5
0 0 0 0 0 0 0 0 5 5 5 0 0 0 0 0 0 0 1 3 0 2 11 87 75 42 27 5 8 26 45 96 21 16 75 98 100 100 100 100 100 100 100 100 100 96 84 74 96
0 0 0 0 0 0 0 0 0 0 0 0 0 0 0 0 0 7 0 0 0 0 0 0 5 25 42 11 12 15 87 100 100 100 100 97 98 100 55 100 100 100 100 100 100 100 100 100 100
100 7 0 0 0 0 0 0 0 0 0 0 0 0 0 0 0 78 78 25 4 0 0 0 5 97 38 5 5 5 12 12 13 34 96 100 100 61 100 100 100 100 100 98 61 97 100 100 100
100 20 5 4 0 0 0 0 0 0 0 0 0 0 0 0 0 51 100 86 24 2 0 0 6 78 98 88 31 24 30 68 74 98 99 83 98 100 100 100 100 100 100 92 97 100 100 100 66
7 9 6 89 5 0 3 0 0 0 0 0 0 0 0 0 0 11 88 99 40 0 0 0 4 5 5 14 0 0 1 16 92 100 100 100 100 100 95 100 100 100 100 100 100 100 100 99 100
3 0 78 100 5 7 1 2 0 0 0 0 0 0 0 0 0 0 32 38 0 0 0 0 0 0 0 2 0 0 4 63 100 100 100 100 100 100 100 100 100 100 100 100 100 100 100 100 13
0 0 2 99 100 43 2 0 0 0 0 0 0 0 0 0 0 0 0 0 0 0 0 0 0 0 4 0 35 0 18 100 100 100 100 100 59 88 100 100 100 100 93 100 100 94 24 5 5
57 38 74 32 65 37 0 3 0 0 0 0 0 4 0 0 0 0 0 0 0 0 0 0 0 0 1 0 10 4 5 82 100 100 100 100 99 100 100 100 100 99 88 99 26 5 5 18 5
98 87 30 16 3 0 0 76 0 0 0 0 0 0 4 0 5 5 5 2 0 0 0 0 0 4 0 0 32 40 36 86 100 100 97 74 99 100 100 100 100 92 54 36 8 5 5 5 5
100 85 53 29 7 82 7 1 0 0 0 0 0 0 0 0 0 0 3 0 0 0 0 0 0 17 17 2 67 98 93 100 100 90 80 69 100 100 100 100 100 46 98 12 5 5 5 5 5
100 100 93 98 87 89 14 3 0 0 0 0 0 0 0 0 0 0 5 0 0 2 5 5 5 5 82 100 100 100 100 100 97 88 100 100 100 99 100 67 7 11 22 13 5 3 2 0 4
99 94 100 82 6 6 27 16 0 0 0 0 0 0 0 0 0 0 0 3 0 0 1 5 5 55 100 100 100 100 100 100 100 98 94 100 49 60 79 5 44 6 5 5 99 9 1 0 4
100 100 100 100 91 24 12 1 0 0 0 0 0 0 0 0 0 0 0 0 0 0 0 0 25 74 100 100 100 100 100 100 98 100 100 100 100 46 39 13 6 52 12 9 100 7 0 0 65

GFSSGP_prec_cloud_147.txt.gz
Cloud_Cover
99 99 100 34 14 93 22 82 100 89 74 20 12 5 5 3 3 10 89 90 98 98 51 42 3 4 0 5 84 100 100 74 90 100 100 51 97 99 100 96 5 5 7 5 5 4 4 4 5
13 17 22 64 89 100 95 12 48 90 83 100 96 5 5 51 5 5 5 5 22 12 66 5 5 5 5 5 28 97 5 100 98 80 100 100 35 58 56 22 6 5 5 5 5 5 5 3 0
4 5 5 33 100 100 95 58 5 78 44 92 100 86 6 87 32 5 5 5 30 5 5 5 4 4 5 5 5 5 6 45 100 100 100 100 100 95 100 83 5 5 5 2 1 0 1 3 39
0 1 2 3 100 100 65 1 5 5 5 75 100 100 100 100 100 92 30 5 5 4 3 75 9 100 100 83 5 5 5 43 97 98 89 100 100 100 100 36 5 5 26 5 5 5 2 2 100
0 0 0 2 98 100 69 0 0 5 36 96 100 100 100 100 100 100 75 5 5 5 5 33 13 100 100 85 99 100 100 100 100 100 93 75 100 100 100 92 5 7 10 6 6 53 69 100 95
0 0 0 0 9 100 9 0 0 0 2 15 62 100 100 100 100 100 68 27 5 5 5 46 81 72 100 100 100 99 99 100 100 100 100 100 100 100 100 100 75 19 8 30 100 100 100 100 54
0 0 0 0 8 100 75 12 0 0 0 0 0 97 100 100 100 100 100 98 19 72 74 94 100 54 75 100 100 100 100 100 100 100 100 100 100 100 100 100 88 5 48 100 100 88 100 100 100
0 0 0 3 74 100 100 5 0 0 0 0 0 38 100 100 100 100 100 100 19 5 5 59 91 8 41 12 98 100 100 100 100 100 100 100 100 100 100 100 42 5 100 89 63 100 97 100 99
0 0 0 31 97 100 100 89 0 0 0 0 0 0 76 100 100 100 100 100 92 5 7 100 100 100 100 84 22 67 100 100 100 100 100 100 100 80 83 87 5 15 49 82 5 29 100 100 20
0 0 0 80 100 100 100 100 29 0 0 0 0 5 0 52 100 100 100 100 100 78 5 25 95 97 97 100 93 40 6 6 81 100 100 100 68 5 20 71 14 10 23 16 97 22 100 93 5
0 0 5 6 92 100 100 100 11 22 0 0 4 0 5 0 0 1 6 11 95 95 23 96 72 83 5 6 5 2 0 4 2 3 23 76 5 5 5 42 72 5 5 5 6 5 45 5 5
0 0 0 0 6 21 82 100 95 67 5 0 0 0 0 0 4 0 5 3 4 5 78 88 77 100 8 1 0 0 2 0 0 0 10 25 23 58 96 79 56 5 5 13 0 0 0 5 5
0 0 0 0 0 5 5 66 100 50 5 2 0 0 0 0 4 5 5 16 70 37 100 100 100 100 28 8 0 0 5 5 5 0 2 83 65 27 93 73 79 98 78 31 5 5 3 0 0
0 0 0 0 0 5 5 5 5 71 89 5 2 0 0 0 5 4 49 73 79 67 96 100 100 96 14 5 5 2 0 0 2 5 55 30 13 95 95 95 74 70 94 96 21 5 5 5 5
0 0 0 0 0 0 4 28 0 100 92 91 98 0 0 3 5 10 51 5 5 6 90 100 56 28 23 2 5 6 5 5 50 22 96 1 98 54 96 59 97 100 100 100 98 99 76 17 5
0 0 0 0 0 0 0 0 99 100 38 74 78 96 24 1 0 5 92 100 23 28 94 100 75 51 57 40 6 0 0 0 4 94 16 68 93 99 98 99 100 72 100 97 99 100 100 100 100
1 0 0 0 0 0 0 0 36 41 88 8 18 79 80 10 5 7 5 71 100 97 63 98 45 41 84 100 11 4 6 4 4 5 16 6 98 100 100 94 87 99 63 16 66 100 100 100 100
4 83 0 0 0 0 0 0 0 4 5 38 4 0 3 5 4 36 75 64 41 47 100 100 71 67 100 55 41 5 5 6 8 96 79 6 81 100 90 85 100 67 72 81 100 100 100 100 100
4 48 100 72 0 0 0 0 0 0 5 5 82 20 5 0 1 3 5 32 47 55 100 91 39 84 95 19 13 44 73 14 76 84 9 5 65 99 46 6 95 66 64 96 100 100 100 100 100
0 5 10 83 5 1 0 0 0 0 0 5 6 75 10 6 2 0 0 50 47 100 100 94 100 100 100 93 72 88 93 75 100 76 7 5 50 68 6 8 98 100 100 100 100 100 37 93 100
0 2 5 19 35 0 2 0 0 0 0 0 0 20 5 5 5 5 0 0 42 59 96 100 100 88 84 41 37 92 94 98 36 6 9 4 40 61 55 76 100 100 100 100 100 99 100 100 100
5 98 5 54 93 29 1 0 0 0 0 0 0 0 0 0 2 5 4 0 0 7 5 21 5 5 7 5 40 16 5 8 8 3 37 53 28 55 84 99 100 100 100 100 100 100 100 100 100
97 99 8 6 100 100 79 5 0 0 0 0 0 0 0 0 0 4 5 17 6 3 0 0 6 19 0 6 5 0 2 0 22 99 100 100 100 99 100 100 100 100 100 100 100 100 100 100 100
53 89 79 100 88 100 70 94 0 0 0 0 0 0 0 0 0 0 9 34 7 5 20 15 21 38 13 12 2 0 0 30 100 100 100 100 100 78 99 100 100 100 100 100 100 100 56 56 78
100 100 100 100 99 38 58 100 0 0 0 0 0 0 0 0 0 0 0 3 15 85 26 33 52 50 29 10 5 5 0 76 97 100 100 100 100 98 100 100 100 100 100 100 100 69 6 50 100
100 100 100 100 100 100 100 100 0 0 0 0 0 0 0 0 0 0 0 0 0 6 18 50 51 46 42 18 56 63 72 100 100 100 100 100 100 100 100 100 100 100 100 100 100 100 100 93 100
100 100 100 100 100 60 100 17 0 0 0 0 0 0 0 0 0 0 0 0 0 0 1 18 22 68 67 75 58 100 100 100 100 100 98 100 94 99 100 100 100 100 100 100 100 100 100 100 100
100 98 100 100 100 100 89 8 0 0 0 0 0 0 0 0 0 0 0 0 0 0 0 8 50 99 100 100 99 100 100 100 100 100 100 100 98 100 100 100 100 100 100 100 100 100 100 100 100
88 100 100 96 95 99 80 58 1 0 0 0 0 0 0 0 0 0 0 0 0 0 0 75 100 100 100 100 100 100 100 100 100 100 100 100 99 100 100 100 100 100 100 100 100 100 100 100 100
100 100 77 100 96 99 95 83 19 2 0 0 0 0 0 0 0 0 0 0 0 0 0 100 100 100 100 100 100 100 100 100 100 100 100 80 100 100 100 100 100 100 100 100 100 100 100 100 100